Location: Karcze
(52.0945°N, 22.4786°E)
Time: 12:24:40
(UTC+00:00)

Cosmos 2016 Rocket - Pass Details

Date: 14 July 2020
Orbit: 948 x 999 km, 83.0° (Epoch: 07 August)

Event Time Altitude Azimuth Distance (km) Brightness Sun altitude
Exits shadow 00:09:03 15° 176° (S) 2,343 5.5 -13.5°
Maximum altitude 00:14:13 70° 95° (E) 1,028 4.2 -13.2°
Drops below altitude 10° 00:20:26 10° 14° (NNE) 2,736 7.8 -12.8°
Sets 00:22:59 0° 12° (NNE) 3,696 8.8 -12.7°
